Regional Weather Roundup
Issued by NWS San Angelo, TX

Home | Current Version | Previous Version | Text Only | Print | Product List | Glossary On
Versions: 1 2 3 4 5 6 7 8 9 10 11 12 13 14 15 16 17 18 19 20 21 22 23 24 25 26 27 28 29 30 31 32 33 34 35 36 37 38 39 40 41 42 43 44 45 46 47 48 49 50
000
ASUS44 KSJT 220910
RWRSJT
WEST CENTRAL TEXAS REGIONAL WEATHER ROUNDUP
NATIONAL WEATHER SERVICE SAN ANGELO TX
400 AM CDT SUN OCT 22 2017

NOTE: "FAIR" INDICATES FEW OR NO CLOUDS BELOW 12,000 FEET WITH NO
SIGNIFICANT WEATHER AND/OR OBSTRUCTIONS TO VISIBILITY.

TXZ049-054-064>066-071>073-076>078-098-099-113-114-127-128-139-140-
154-155-168>170-221000
...LOCATIONS ACROSS WEST CENTRAL TEXAS...

CITY           SKY/WX    TMP DP  RH WIND       PRES   REMARKS
SAN ANGELO     CLEAR     61  49  64 N12       30.09R
ABILENE        CLEAR     55  50  83 N14       30.09R
DYESS AFB      CLEAR     56  47  70 NW12      30.10R
JUNCTION       PTCLDY    63  62  97 W5        30.02S
SWEETWATER     CLEAR     53  40  63 NW8       30.16R
BROWNWOOD      NOT AVBL
COLEMAN        MOSUNNY   59  52  76 N17G26    30.06R
SONORA         CLEAR     63  63 100 CALM      30.09S FOG
OZONA          FAIR      61  61 100 N8        30.10R FOG
BRADY          NOT AVBL
$$

TEXAS PANHANDLE/OKLAHOMA PANHANDLE

CITY           SKY/WX    TMP DP  RH WIND       PRES   REMARKS
AMARILLO       CLEAR     40  32  73 W8        30.20S WCI  34
BORGER         CLEAR     42  33  70 W8        30.19S WCI  37
CANADIAN       CLEAR     35  33  91 CALM      30.16S
DALHART        CLEAR     38  24  57 NW9       30.24R WCI  31
DUMAS          SUNNY     36  25  64 NW8       30.21R WCI  29
GUYMON         NOT AVBL
HEREFORD       SUNNY     36  32  87 NW7       30.22S WCI  30
PAMPA          SUNNY     39  33  80 W8        30.18F WCI  33
PERRYTON       CLEAR     37  31  80 NW7       30.16S WCI  31
$$

SOUTHERN PANHANDLE/SOUTH PLAINS/ROLLING PLAINS

CITY           SKY/WX    TMP DP  RH WIND       PRES   REMARKS
LUBBOCK        CLEAR     41  36  82 NW6       30.19R WCI  37
SNYDER         CLEAR     53  34  48 N10       30.16R
CHILDRESS      CLEAR     46  38  73 NW8       30.15R
SEMINOLE       SUNNY     45  36  71 NW8       30.23R
$$

PERMIAN BASIN

CITY           SKY/WX    TMP DP  RH WIND       PRES   REMARKS
MIDLAND        CLEAR     51  38  60 N8        30.16R
ODESSA         NOT AVBL
WINK           CLEAR     51  38  60 NE5       30.18R
$$

FAR WEST/SOUTHWEST MOUNTAINS/TRANS PECOS

CITY           SKY/WX    TMP DP  RH WIND       PRES   REMARKS
ALPINE         SUNNY     50  33  52 CALM      30.28R
DRYDEN           N/A     66  52  60 NW7       30.04S
EL PASO        CLEAR     63  26  24 NW12      30.20R
FORT STOCKTON  CLEAR     55  42  61 N9        30.17R
GUADALUPE PASS CLEAR     52  32  46 E25       30.25R
MARFA          CLEAR     49  32  52 N10       30.24R
PECOS          SUNNY     56  40  55 N10       30.19R
$$

DALLAS/FORT WORTH METROPLEX

CITY           SKY/WX    TMP DP  RH WIND       PRES   REMARKS
DFW AIRPORT    TSTM      63  62  97 NE14      29.94F
FTW MEACHAM    LGT RAIN  63  62  97 VRB7      29.98R
DAL-EXECUTIVE  LGT RAIN  62  61  96 E13       29.95F
GRAND PRAIRIE  CLOUDY    62  62 100 NE9       29.97F
ADDISON        TSTM      62  60  94 E12       30.01F
MESQUITE       CLOUDY    61  60  97 NE5       30.01S
LANCASTER      TSTM      61  60  96 NE10      30.00F
$$

NORTH CENTRAL TEXAS

CITY           SKY/WX    TMP DP  RH WIND       PRES   REMARKS
SHRMAN/DENISON CLOUDY    61  59  96 E13       29.97F
GAINESVILLE    LGT RAIN  60  59  95 N7G16     30.01R
BRIDGEPORT     CLOUDY    60  57  91 N8G24     30.02S
DENTON         LGT RAIN  62  61  96 E14       29.94F
WAXAHACHIE     RAIN      60  60 100 E9        29.98F
GRANBURY       CLOUDY    63  60  90 NW3       30.04R
$$

WESTERN NORTH TEXAS

CITY           SKY/WX    TMP DP  RH WIND       PRES   REMARKS
WICHITA FALLS  CLOUDY    57  53  86 N14       30.07R
VERNON         SUNNY     53  44  71 NW7       30.12R
BRECKENRIDGE   CLOUDY    60  55  85 N9        30.06R
COMANCHE       CLOUDY    59  59 100 NW5       30.03R
$$

CENTRAL AND SOUTH CENTRAL TEXAS

CITY           SKY/WX    TMP DP  RH WIND       PRES   REMARKS
AUSTIN/BERGSTM MOCLDY    74  74 100 SW5       29.96R
WACO           HVY RAIN  62  60  93 NW8       29.99S FOG
HILLSBORO      CLOUDY    61  60  97 E7        29.98F
TEMPLE         MOCLDY    75  73  93 S12       29.95S
KILLEEN-GRAY   MOCLDY    73  72  94 S9        29.96R
FORT HOOD      CLOUDY    73  70  90 S7        29.92R
GEORGETOWN     CLOUDY    76  72  87 S12       29.97S
LAGO VISTA     CLOUDY    75  72  89 S10       29.98S
SAN MARCOS     MOCLDY    76  73  91 S8        29.97S
NEW BRAUNFELS  CLOUDY    77  73  87 SW9       29.96R
RANDOLPH AFB   CLOUDY    77  73  88 SW7       29.99R
SAN ANTONIO    CLOUDY    77  71  82 S8        29.99R
STINSON        CLOUDY    78  75  90 CALM      29.96R
PLEASANTON     NOT AVBL
LA GRANGE      CLOUDY    79  77  95 S6        29.94S
GIDDINGS       CLOUDY    75  73  92 S5        29.97S
$$

EAST TEXAS

CITY           SKY/WX    TMP DP  RH WIND       PRES   REMARKS
PARIS          CLOUDY    61  60  97 CALM      30.05R
CLARKSVILLE    NOT AVBL
TYLER          TSTM      60  60 100 NE8       30.05S FOG
LONGVIEW       HVY RAIN  63  61  93 N18G37    30.03R FOG
PALESTINE      CLOUDY    75  74  96 S3        30.00R
NACOGDOCHES    MOCLDY    73  72  96 S5        29.98S
$$

TEXAS HILL COUNTRY AND EDWARDS PLATEAU

CITY           SKY/WX    TMP DP  RH WIND       PRES   REMARKS
LLANO          CLOUDY    72  66  83 CALM      30.01R
HORSESHOE BAY  CLOUDY    74  70  87 CALM      29.97S
KERRVILLE      CLOUDY    73  71  93 S6        30.01F
FREDERICKSBRG  CLOUDY    73  68  87 SW7       30.01S
ROCKSPRINGS    NOT AVBL
HONDO          CLOUDY    76  72  87 S3        29.99R
UVALDE         MOSUNNY   70  69  96 NE3       29.98S
DEL RIO        CLEAR     66  65  96 S3        29.96F
$$

SOUTHEAST TEXAS

CITY           SKY/WX    TMP DP  RH WIND       PRES   REMARKS
COLLEGE STN    LGT RAIN  77  75  93 S7        29.96F
CALDWELL       CLOUDY    74  73  96 S5        29.96F
CROCKETT         N/A     73  72  94 CALM      30.00S
BRENHAM        CLOUDY    77  76  98 S5        29.97S
HUNTSVILLE     CLOUDY    75  72  90 S3        29.98R
CONROE         CLOUDY    73  73 100 CALM      29.97F FOG
HOUSTON BUSH   PTCLDY    73  73 100 CALM      29.96F FOG
HOUSTON HOBBY  PTCLDY    75  72  90 CALM      29.96S
PERLAND        PTCLDY    76  71  85 CALM      29.97F
WHARTON        SUNNY     73  72  96 SE3       29.96F FOG
$$

THE UPPER TEXAS COAST

CITY           SKY/WX    TMP DP  RH WIND       PRES   REMARKS
ORANGE         CLOUDY    77  77 100 SE5       29.98S FOG
PORT ARTHUR    PTCLDY    73  72  96 SE3       29.96R FOG
GALVESTON      CLEAR     79  77  94 S5        29.96S
ANGLETON       CLEAR     74  72  93 CALM      29.95F FOG
BAY CITY       PTSUNNY   75  75 100 CALM      29.95S FOG
$$

TEXAS COASTAL BEND, RIO GRANDE PLAINS DEEP SOUTH TEXAS

CITY           SKY/WX    TMP DP  RH WIND       PRES   REMARKS
VICTORIA       CLOUDY    74  73  97 CALM      29.95S
BEEVILLE       CLOUDY   N/A N/A N/A SE5       29.95F
ROCKPORT       CLEAR     79  77  94 S3        29.93S
PORT ARANSAS   NOT AVBL
PORT LAVACA    MOSUNNY   76  74  93 CALM      29.94F
CORPUS CHRISTI PTCLDY    76  76 100 CALM      29.93S
KINGSVILLE NAS NOT AVBL
COTULLA        CLEAR     74  72  93 SE6       29.94S
LAREDO         CLEAR     74  71  91 E5        29.93F
BROWNSVILLE    CLEAR     76  76 100 CALM      29.92S FOG
PORT ISABEL    PTCLDY    77  76  96 S5        29.91S
HEBBRONVILLE   PTSUNNY   74  72  93 CALM      29.96S
MCALLEN        CLEAR     77  75  93 SE7       29.91S
WESLACO        CLEAR     75  74  95 S3        29.90F
FALFURRIAS     PTSUNNY   74  73  95 CALM      29.93R
EDINBURG       MOSUNNY   76  73  92 CALM      29.92R FOG
$$




USA.gov is the U.S. government's official web portal to all federal, state and local government web resources and services.